Flag for Poland Weather past 2 weeks in Gorzów Wielkopolski, Poland

Now
83 °F

Scattered clouds.


Feels Like: 81 °F
Forecast: 61 / 86 °F
Wind: 2 mph from Southwest

Location: Gorzow Wlkp

Current Time: Aug 2, 2015 at 8:25:23 PM

Latest Report: Aug 2, 2015 at 7:00 PM


Visibility: 19 mi

Pressure: 30.05 "Hg

Humidity: 27%

Dew point: 46 °F

Location of Gorzów WielkopolskiLocation

Historic Weather in Gorzów Wielkopolski — Graph

°F

Gorzów Wielkopolski temperature yesterday

Maximum temperature yesterday: 76 °F (at 6:00 PM)
Minimum temperature yesterday: 47 °F (at 4:00 AM)
Average temperature yesterday: 63 °F

Past Weeks' High & Low Weather Summary

 TemperatureHumidityPressure
High84 °F (Aug 2, 5:00 PM)99% (Jul 28, 2:00 AM)30.12 "Hg (Jul 28, 2:00 AM)
Low47 °F (Aug 1, 4:00 AM)27% (Aug 2, 3:00 PM)29.56 "Hg (Jul 25, 5:00 PM)
Average65 °F66%29.85 "Hg
* Reported Jul 18 7:00 PM — Aug 2 7:00 PM, Gorzów Wielkopolski, Weather by CustomWeather, © 2015

Note: Actual official high and low records may vary slightly from our data, if they occured in-between our weather recording intervals... More about our weather records

Advertising

Gorzów Wielkopolski weather history for previous 24 hours

 ConditionsComfort  
Time TempWeatherWind HumidityBarometerVisibility
7:00 PM
Sun, Aug 2
83 °FScattered clouds.2 mph27%30.05 "Hg19 mi
6:00 PM83 °FScattered clouds.2 mph28%30.06 "Hg19 mi
5:00 PM84 °FScattered clouds.2 mph28%30.06 "Hg19 mi
4:00 PM84 °FPassing clouds.2 mph28%30.06 "Hg19 mi
3:00 PM84 °FPassing clouds.2 mph27%30.07 "Hg19 mi
2:00 PM81 °FPassing clouds.2 mph32%30.08 "Hg19 mi
1:00 PM80 °FScattered clouds.1 mph35%30.09 "Hg19 mi
12:00 PM79 °FPassing clouds.2 mph33%30.09 "Hg19 mi
11:00 AM74 °FPassing clouds.1 mph46%30.09 "Hg19 mi
10:00 AM69 °FPassing clouds.1 mph53%30.09 "Hg16 mi
9:00 AM66 °FPassing clouds.2 mph55%30.08 "Hg19 mi
8:00 AM64 °FScattered clouds.2 mph59%30.08 "Hg16 mi
7:00 AM60 °FPartly sunny.2 mph65%30.07 "Hg9 mi
6:00 AM56 °FPartly sunny.2 mph72%30.07 "Hg9 mi
4:00 AM60 °FPassing clouds.2 mph62%30.06 "Hg12 mi
3:00 AM62 °FPassing clouds.3 mph58%30.05 "Hg12 mi
12:00 AM64 °FPassing clouds.3 mph54%30.06 "Hg16 mi
10:00 PM
Sat, Aug 1
67 °FPassing clouds.3 mph47%30.05 "Hg16 mi
9:00 PM69 °FPassing clouds.2 mph46%30.03 "Hg16 mi
Weather by CustomWeather, © 2015

See weather overviewHow to use our weather pages